TAM3047 SBCF-SBSP

Flight info

Callsign TAM3047
Flight time 0h 59m
Altitude 34000
Route ANDEM UZ30 ENTIT
Aircraft A320/M-SDE3FGHIRWY/LB1

Departure

Time 2026-05-08 13:23
Airport Tancredo Neves International Airport (SBCF)

Arrival

Time 2026-05-08 14:23
Airport Congonhas–Deputado Freitas Nobre Airport (SBSP)
Time Latitude Longitude Altitude Speed Heading
2026-05-08 13:01 -19.62856 -43.96803 2838 ft 0 kts 49°
2026-05-08 13:16 -19.62867 -43.96816 2824 ft 4 kts 44°
2026-05-08 13:17 -19.62888 -43.96833 2826 ft 4 kts 26°
2026-05-08 13:17 -19.62912 -43.96839 2825 ft 4 kts 340°
2026-05-08 13:17 -19.62923 -43.96833 2827 ft 1 kts 319°
2026-05-08 13:17 -19.62923 -43.96832 2827 ft 0 kts 319°
2026-05-08 13:20 -19.62905 -43.96849 2825 ft 7 kts 319°
2026-05-08 13:20 -19.62856 -43.96894 2821 ft 9 kts 319°
2026-05-08 13:21 -19.62810 -43.96935 2823 ft 8 kts 319°
2026-05-08 13:21 -19.62782 -43.97002 2824 ft 11 kts 270°
2026-05-08 13:21 -19.62810 -43.97069 2824 ft 9 kts 229°
2026-05-08 13:21 -19.62853 -43.97121 2824 ft 11 kts 227°
2026-05-08 13:22 -19.62915 -43.97195 2825 ft 14 kts 230°
2026-05-08 13:22 -19.62984 -43.97234 2825 ft 11 kts 150°
2026-05-08 13:22 -19.63037 -43.97185 2825 ft 12 kts 139°
2026-05-08 13:22 -19.63221 -43.97015 2824 ft 70 kts 139°
2026-05-08 13:23 -19.63759 -43.96517 2825 ft 132 kts 139°
2026-05-08 13:23 -19.64581 -43.95755 2925 ft 173 kts 137°
2026-05-08 13:23 -19.65529 -43.94889 3398 ft 188 kts 137°
2026-05-08 13:23 -19.66578 -43.93916 3749 ft 212 kts 137°
2026-05-08 13:24 -19.67757 -43.92827 4118 ft 233 kts 137°
2026-05-08 13:24 -19.69032 -43.91785 4946 ft 233 kts 153°
2026-05-08 13:24 -19.70662 -43.91393 5482 ft 255 kts 181°
2026-05-08 13:24 -19.72425 -43.91958 5925 ft 280 kts 216°
2026-05-08 13:25 -19.73670 -43.93546 6606 ft 286 kts 251°
2026-05-08 13:25 -19.74205 -43.95578 7438 ft 287 kts 258°
2026-05-08 13:25 -19.74722 -43.97638 8291 ft 291 kts 257°
2026-05-08 13:25 -19.75277 -43.99726 9090 ft 296 kts 257°
2026-05-08 13:26 -19.75850 -44.01841 9918 ft 301 kts 256°
2026-05-08 13:26 -19.76435 -44.04002 10536 ft 312 kts 256°
2026-05-08 13:26 -19.77049 -44.06298 10783 ft 334 kts 256°
2026-05-08 13:26 -19.77689 -44.08714 11247 ft 344 kts 256°
2026-05-08 13:27 -19.78340 -44.11181 11934 ft 349 kts 256°
2026-05-08 13:27 -19.78999 -44.13685 12639 ft 354 kts 256°
2026-05-08 13:27 -19.79664 -44.16215 13353 ft 358 kts 256°
2026-05-08 13:27 -19.80335 -44.18776 14064 ft 361 kts 256°
2026-05-08 13:28 -19.81011 -44.21355 14686 ft 365 kts 256°
2026-05-08 13:28 -19.81463 -44.23082 15090 ft 367 kts 256°
2026-05-08 13:28 -19.82377 -44.26563 15917 ft 371 kts 256°
2026-05-08 13:28 -19.82846 -44.28348 16336 ft 373 kts 256°
2026-05-08 13:29 -19.83769 -44.31882 17149 ft 377 kts 256°
2026-05-08 13:29 -19.84472 -44.34579 17730 ft 380 kts 256°
2026-05-08 13:29 -19.85178 -44.37295 18312 ft 384 kts 256°
2026-05-08 13:29 -19.85890 -44.40042 18818 ft 387 kts 256°
2026-05-08 13:30 -19.86607 -44.42802 19337 ft 389 kts 255°
2026-05-08 13:30 -19.87095 -44.44676 19702 ft 390 kts 256°
2026-05-08 13:30 -19.87820 -44.47458 20236 ft 392 kts 256°
2026-05-08 13:30 -19.88540 -44.50219 20793 ft 393 kts 255°
2026-05-08 13:31 -19.89277 -44.53057 21357 ft 394 kts 255°
2026-05-08 13:31 -19.90009 -44.55870 21900 ft 396 kts 255°
2026-05-08 13:31 -19.90745 -44.58700 22456 ft 398 kts 255°
2026-05-08 13:31 -19.91482 -44.61537 23033 ft 399 kts 254°
2026-05-08 13:32 -19.92219 -44.64381 23560 ft 401 kts 254°
2026-05-08 13:32 -19.92951 -44.67212 24003 ft 404 kts 254°
2026-05-08 13:32 -19.93697 -44.70090 24457 ft 405 kts 254°
2026-05-08 13:32 -19.94446 -44.72981 24906 ft 406 kts 254°
2026-05-08 13:33 -19.95195 -44.75881 25324 ft 408 kts 255°
2026-05-08 13:33 -19.95949 -44.78800 25713 ft 410 kts 255°
2026-05-08 13:33 -19.96706 -44.81732 26122 ft 412 kts 255°
2026-05-08 13:33 -19.97462 -44.84675 26511 ft 414 kts 255°
2026-05-08 13:34 -19.98225 -44.87637 26907 ft 416 kts 255°
2026-05-08 13:34 -19.98991 -44.90605 27305 ft 417 kts 255°
2026-05-08 13:34 -19.99758 -44.93581 27703 ft 418 kts 255°
2026-05-08 13:34 -20.00528 -44.96568 28100 ft 420 kts 255°
2026-05-08 13:35 -20.01300 -44.99572 28482 ft 422 kts 255°
2026-05-08 13:35 -20.02072 -45.02583 28862 ft 423 kts 255°
2026-05-08 13:35 -20.02845 -45.05607 29231 ft 425 kts 255°
2026-05-08 13:35 -20.03623 -45.08643 29599 ft 426 kts 255°
2026-05-08 13:36 -20.04407 -45.11689 29958 ft 428 kts 255°
2026-05-08 13:36 -20.05193 -45.14745 30289 ft 429 kts 255°
2026-05-08 13:36 -20.05978 -45.17810 30577 ft 431 kts 255°
2026-05-08 13:36 -20.06765 -45.20891 30859 ft 432 kts 255°
2026-05-08 13:37 -20.07552 -45.23976 31149 ft 433 kts 255°
2026-05-08 13:37 -20.08339 -45.27070 31416 ft 434 kts 255°
2026-05-08 13:37 -20.09129 -45.30180 31685 ft 435 kts 255°
2026-05-08 13:37 -20.09922 -45.33281 32059 ft 434 kts 254°
2026-05-08 13:38 -20.11006 -45.36267 32426 ft 433 kts 244°
2026-05-08 13:38 -20.12577 -45.38997 32791 ft 433 kts 234°
2026-05-08 13:38 -20.14584 -45.41382 33146 ft 434 kts 224°
2026-05-08 13:38 -20.16773 -45.43333 33487 ft 434 kts 221°
2026-05-08 13:39 -20.19112 -45.45362 33859 ft 433 kts 221°
2026-05-08 13:39 -20.21444 -45.47389 34098 ft 433 kts 221°
2026-05-08 13:39 -20.26014 -45.51371 34147 ft 418 kts 221°
2026-05-08 13:40 -20.30488 -45.55281 34144 ft 415 kts 221°
2026-05-08 13:40 -20.34942 -45.59182 34144 ft 415 kts 221°
2026-05-08 13:41 -20.39416 -45.63100 34153 ft 417 kts 222°
2026-05-08 13:41 -20.43896 -45.67030 34143 ft 417 kts 222°
2026-05-08 13:42 -20.48381 -45.70957 34144 ft 417 kts 222°
2026-05-08 13:42 -20.52871 -45.74891 34143 ft 418 kts 222°
2026-05-08 13:43 -20.57367 -45.78824 34141 ft 418 kts 222°
2026-05-08 13:43 -20.61850 -45.82761 34143 ft 417 kts 222°
2026-05-08 13:44 -20.66333 -45.86705 34143 ft 417 kts 222°
2026-05-08 13:44 -20.70807 -45.90646 34143 ft 417 kts 222°
2026-05-08 13:45 -20.75287 -45.94588 34150 ft 417 kts 222°
2026-05-08 13:45 -20.79777 -45.98543 34137 ft 424 kts 222°
2026-05-08 13:46 -20.84419 -46.02634 34132 ft 440 kts 222°
2026-05-08 13:46 -20.89200 -46.06846 34131 ft 449 kts 222°
2026-05-08 13:47 -20.94004 -46.11082 34128 ft 451 kts 222°
2026-05-08 13:47 -20.99245 -46.14784 34128 ft 457 kts 206°
2026-05-08 13:48 -21.05289 -46.17016 34133 ft 460 kts 202°
2026-05-08 13:48 -21.11377 -46.19177 34131 ft 461 kts 202°
2026-05-08 13:49 -21.17467 -46.21336 34134 ft 461 kts 201°
2026-05-08 13:49 -21.23588 -46.23437 34137 ft 462 kts 201°
2026-05-08 13:50 -21.29721 -46.25499 34137 ft 462 kts 201°
2026-05-08 13:50 -21.35848 -46.27574 34138 ft 462 kts 201°
2026-05-08 13:51 -21.41974 -46.29660 34142 ft 462 kts 201°
2026-05-08 13:51 -21.48096 -46.31756 34140 ft 462 kts 201°
2026-05-08 13:52 -21.54217 -46.33847 34140 ft 462 kts 201°
2026-05-08 13:52 -21.60333 -46.35934 34151 ft 462 kts 201°
2026-05-08 13:53 -21.66465 -46.38029 34142 ft 462 kts 202°
2026-05-08 13:53 -21.72556 -46.40224 34141 ft 462 kts 203°
2026-05-08 13:54 -21.78629 -46.42493 34130 ft 462 kts 203°
2026-05-08 13:54 -21.84710 -46.44754 34129 ft 463 kts 203°
2026-05-08 13:55 -21.90800 -46.46991 34125 ft 458 kts 203°
2026-05-08 13:55 -21.96623 -46.49118 34121 ft 432 kts 203°
2026-05-08 13:56 -21.99456 -46.50158 34119 ft 431 kts 203°
2026-05-08 13:56 -22.02320 -46.51220 33892 ft 439 kts 203°
2026-05-08 13:56 -22.05212 -46.52296 33157 ft 441 kts 203°
2026-05-08 13:56 -22.08106 -46.53366 32505 ft 438 kts 203°
2026-05-08 13:57 -22.10982 -46.54426 31933 ft 435 kts 203°
2026-05-08 13:57 -22.13835 -46.55475 31290 ft 434 kts 203°
2026-05-08 13:57 -22.16677 -46.56520 30826 ft 428 kts 203°
2026-05-08 13:57 -22.19495 -46.57556 30297 ft 426 kts 204°
2026-05-08 13:58 -22.22289 -46.58587 29705 ft 423 kts 204°
2026-05-08 13:58 -22.25051 -46.59609 29244 ft 417 kts 204°
2026-05-08 13:58 -22.27774 -46.60617 28785 ft 411 kts 204°
2026-05-08 13:58 -22.30466 -46.61614 28340 ft 406 kts 204°
2026-05-08 13:59 -22.33126 -46.62599 27893 ft 402 kts 204°
2026-05-08 13:59 -22.35762 -46.63576 27435 ft 399 kts 204°
2026-05-08 13:59 -22.38377 -46.64542 26989 ft 396 kts 204°
2026-05-08 13:59 -22.40894 -46.65667 26535 ft 388 kts 214°
2026-05-08 14:00 -22.43126 -46.67232 26096 ft 378 kts 224°
2026-05-08 14:00 -22.45055 -46.69109 25661 ft 372 kts 228°
2026-05-08 14:00 -22.46938 -46.71019 25214 ft 370 kts 228°
2026-05-08 14:00 -22.48814 -46.72912 24756 ft 368 kts 228°
2026-05-08 14:01 -22.50684 -46.74798 24283 ft 368 kts 228°
2026-05-08 14:01 -22.52555 -46.76686 23807 ft 367 kts 228°
2026-05-08 14:01 -22.54429 -46.78560 23336 ft 367 kts 225°
2026-05-08 14:01 -22.56575 -46.80009 23233 ft 363 kts 207°
2026-05-08 14:02 -22.58953 -46.80828 23146 ft 353 kts 201°
2026-05-08 14:02 -22.61277 -46.81546 23057 ft 341 kts 201°
2026-05-08 14:02 -22.63556 -46.82250 22979 ft 342 kts 201°
2026-05-08 14:02 -22.65844 -46.82959 22902 ft 342 kts 201°
2026-05-08 14:03 -22.68135 -46.83667 22824 ft 342 kts 201°
2026-05-08 14:03 -22.70426 -46.84374 22746 ft 342 kts 201°
2026-05-08 14:03 -22.72713 -46.85083 22677 ft 342 kts 201°
2026-05-08 14:03 -22.75003 -46.85793 22601 ft 342 kts 201°
2026-05-08 14:04 -22.77284 -46.86500 22520 ft 341 kts 201°
2026-05-08 14:04 -22.79566 -46.87206 22444 ft 341 kts 201°
2026-05-08 14:04 -22.81847 -46.87911 22369 ft 341 kts 201°
2026-05-08 14:04 -22.84125 -46.88615 22294 ft 340 kts 201°
2026-05-08 14:05 -22.86400 -46.89320 22222 ft 340 kts 201°
2026-05-08 14:05 -22.88675 -46.90025 22148 ft 340 kts 201°
2026-05-08 14:05 -22.90945 -46.90729 22072 ft 339 kts 201°
2026-05-08 14:05 -22.93217 -46.91428 21963 ft 341 kts 199°
2026-05-08 14:06 -22.95624 -46.91713 21150 ft 361 kts 178°
2026-05-08 14:06 -22.98184 -46.91374 20221 ft 378 kts 175°
2026-05-08 14:06 -23.00836 -46.90979 19270 ft 389 kts 174°
2026-05-08 14:06 -23.03497 -46.90572 18652 ft 381 kts 173°
2026-05-08 14:07 -23.06081 -46.90175 18167 ft 369 kts 173°
2026-05-08 14:07 -23.08584 -46.89796 17705 ft 357 kts 173°
2026-05-08 14:07 -23.11028 -46.89434 17281 ft 354 kts 173°
2026-05-08 14:07 -23.13466 -46.89078 16854 ft 354 kts 173°
2026-05-08 14:08 -23.15911 -46.88726 16426 ft 354 kts 173°
2026-05-08 14:08 -23.18356 -46.88376 16010 ft 355 kts 174°
2026-05-08 14:08 -23.20802 -46.88025 15587 ft 355 kts 174°
2026-05-08 14:08 -23.23254 -46.87670 15170 ft 355 kts 174°
2026-05-08 14:09 -23.25701 -46.87311 14753 ft 356 kts 174°
2026-05-08 14:09 -23.28159 -46.86949 14335 ft 356 kts 174°
2026-05-08 14:09 -23.30618 -46.86589 13922 ft 357 kts 174°
2026-05-08 14:09 -23.33085 -46.86229 13445 ft 358 kts 174°
2026-05-08 14:10 -23.35548 -46.85869 13024 ft 357 kts 174°
2026-05-08 14:10 -23.38005 -46.85512 12585 ft 356 kts 174°
2026-05-08 14:10 -23.40423 -46.85161 12173 ft 354 kts 174°
2026-05-08 14:10 -23.42858 -46.84804 11732 ft 354 kts 174°
2026-05-08 14:11 -23.45271 -46.84451 11304 ft 346 kts 174°
2026-05-08 14:11 -23.47615 -46.84105 10837 ft 334 kts 175°
2026-05-08 14:11 -23.49884 -46.83767 10405 ft 325 kts 175°
2026-05-08 14:11 -23.52125 -46.83438 9981 ft 326 kts 175°
2026-05-08 14:12 -23.54385 -46.83110 9578 ft 326 kts 175°
2026-05-08 14:12 -23.56568 -46.82541 9091 ft 322 kts 160°
2026-05-08 14:12 -23.58534 -46.81406 9003 ft 324 kts 147°
2026-05-08 14:12 -23.60432 -46.80073 9003 ft 325 kts 148°
2026-05-08 14:13 -23.62341 -46.78750 9011 ft 325 kts 148°
2026-05-08 14:13 -23.64254 -46.77432 9007 ft 324 kts 148°
2026-05-08 14:13 -23.66161 -46.76118 8739 ft 322 kts 147°
2026-05-08 14:13 -23.68050 -46.74815 8441 ft 322 kts 148°
2026-05-08 14:14 -23.69939 -46.73507 8144 ft 321 kts 148°
2026-05-08 14:14 -23.71213 -46.72625 7954 ft 323 kts 147°
2026-05-08 14:14 -23.73113 -46.71308 7656 ft 323 kts 148°
2026-05-08 14:14 -23.75006 -46.69994 7358 ft 322 kts 148°
2026-05-08 14:15 -23.76896 -46.68682 7069 ft 322 kts 148°
2026-05-08 14:15 -23.78788 -46.67369 6771 ft 322 kts 148°
2026-05-08 14:15 -23.80669 -46.66061 6475 ft 320 kts 147°
2026-05-08 14:15 -23.82422 -46.64583 6168 ft 316 kts 127°
2026-05-08 14:16 -23.83380 -46.62571 6016 ft 292 kts 96°
2026-05-08 14:16 -23.83454 -46.60480 5881 ft 262 kts 69°
2026-05-08 14:16 -23.82841 -46.58742 5756 ft 232 kts 46°
2026-05-08 14:16 -23.81899 -46.57400 5638 ft 216 kts 40°
2026-05-08 14:17 -23.80990 -46.56143 5527 ft 206 kts 41°
2026-05-08 14:17 -23.80059 -46.55030 5438 ft 185 kts 22°
2026-05-08 14:17 -23.78953 -46.54675 5356 ft 156 kts 351°
2026-05-08 14:17 -23.77982 -46.55032 5229 ft 144 kts 328°
2026-05-08 14:18 -23.77148 -46.55615 5125 ft 140 kts 329°
2026-05-08 14:18 -23.76328 -46.56182 5024 ft 139 kts 329°
2026-05-08 14:18 -23.75515 -46.56745 4929 ft 139 kts 329°
2026-05-08 14:18 -23.74707 -46.57305 4827 ft 136 kts 329°
2026-05-08 14:19 -23.73906 -46.57860 4732 ft 137 kts 329°
2026-05-08 14:19 -23.73103 -46.58417 4627 ft 137 kts 329°
2026-05-08 14:19 -23.72300 -46.58974 4577 ft 137 kts 329°
2026-05-08 14:19 -23.71500 -46.59528 4473 ft 136 kts 329°
2026-05-08 14:20 -23.70702 -46.60081 4309 ft 135 kts 329°
2026-05-08 14:20 -23.69906 -46.60633 4146 ft 135 kts 330°
2026-05-08 14:20 -23.69113 -46.61182 3971 ft 135 kts 330°
2026-05-08 14:20 -23.68326 -46.61727 3800 ft 134 kts 328°
2026-05-08 14:21 -23.67541 -46.62271 3633 ft 134 kts 328°
2026-05-08 14:21 -23.66749 -46.62819 3460 ft 134 kts 328°
2026-05-08 14:21 -23.65965 -46.63363 3299 ft 132 kts 330°
2026-05-08 14:21 -23.65193 -46.63916 3112 ft 135 kts 329°
2026-05-08 14:22 -23.64394 -46.64465 2883 ft 133 kts 332°
2026-05-08 14:22 -23.63627 -46.64989 2687 ft 130 kts 333°
2026-05-08 14:22 -23.62897 -46.65488 2610 ft 110 kts 329°
2026-05-08 14:22 -23.62389 -46.65836 2602 ft 64 kts 327°
2026-05-08 14:23 -23.62199 -46.65978 2599 ft 14 kts 303°
2026-05-08 14:23 -23.62233 -46.66044 2600 ft 10 kts 192°
2026-05-08 14:23 -23.62293 -46.66012 2600 ft 10 kts 146°
2026-05-08 14:23 -23.62349 -46.65973 2600 ft 10 kts 148°
2026-05-08 14:24 -23.62409 -46.65932 2601 ft 11 kts 148°
2026-05-08 14:24 -23.62475 -46.65887 2601 ft 12 kts 148°
2026-05-08 14:24 -23.62546 -46.65838 2602 ft 13 kts 147°
2026-05-08 14:24 -23.62612 -46.65792 2602 ft 10 kts 147°
2026-05-08 14:25 -23.62657 -46.65790 2601 ft 8 kts 241°
2026-05-08 14:25 -23.62684 -46.65837 2601 ft 4 kts 236°
2026-05-08 14:25 -23.62688 -46.65845 2601 ft 0 kts 236°